This is the latest recevied weather packets stored in our database for station/object KD4EG. If no packets are shown the sender has not sent any weather packets the latest 10 day(s).
| Time | Temp. | Humidity | Pressure | Rain* | Wind** | Luminosity | Snow |
|---|---|---|---|---|---|---|---|
| 1788099168 | 25° C | 82% | 1026 hPa | 0 mm | - | 477 W/m² | - |
| 1788098863 | 24.44° C | 84% | 1026.2 hPa | 0 mm | - | 470 W/m² | - |
| 1788098558 | 24.44° C | 84% | 1026.2 hPa | 0 mm | - | 444 W/m² | - |
| 1788098253 | 23.89° C | 85% | 1026.3 hPa | 0 mm | - | 426 W/m² | - |
| 1788097948 | 23.89° C | 86% | 1026.3 hPa | 0 mm | - | 134 W/m² | - |
| 1788097643 | 23.33° C | 87% | 1026.4 hPa | 0 mm | - | 416 W/m² | - |
| 1788097339 | 23.33° C | 87% | 1026.5 hPa | 0 mm | - | 407 W/m² | - |
| 1788097034 | 22.78° C | 90% | 1026.4 hPa | 0 mm | - | 419 W/m² | - |
| 1788096730 | 22.78° C | 90% | 1026.5 hPa | 0 mm | - | 227 W/m² | - |
| 1788096425 | 22.78° C | 91% | 1026.5 hPa | 0 mm | - | 219 W/m² | - |
| 1788096121 | 22.22° C | 91% | 1026.6 hPa | 0 mm | - | 209 W/m² | - |
| 1788095820 | 22.22° C | 91% | 1026.6 hPa | 0 mm | - | 344 W/m² | - |
| 1788095520 | 22.22° C | 91% | 1026.8 hPa | 0 mm | - | 237 W/m² | - |
| 1788095215 | 21.67° C | 92% | 1026.7 hPa | 0 mm | - | 269 W/m² | - |
| 1788094915 | 21.67° C | 93% | 1026.7 hPa | 0 mm | - | 207 W/m² | - |
| 1788094609 | 21.11° C | 94% | 1027 hPa | 0 mm | - | 168 W/m² | - |
| 1788094304 | 21.11° C | 94% | 1026.9 hPa | 0 mm | - | 139 W/m² | - |
| 1788094002 | 20.56° C | 94% | 1026.9 hPa | 0 mm | - | 107 W/m² | - |
| 1788093698 | 20.56° C | 95% | 1026.6 hPa | 0 mm | - | 135 W/m² | - |
| 1788093395 | 20.56° C | 96% | 1026.3 hPa | 0 mm | - | 107 W/m² | - |
| 1788093090 | 20° C | 96% | 1026.5 hPa | 0 mm | - | 173 W/m² | - |
| 1788092787 | 20° C | 98% | 1026.6 hPa | 0 mm | - | 173 W/m² | - |
| 1788092482 | 20° C | 98% | 1026.7 hPa | 0 mm | - | 114 W/m² | - |
| 1788092178 | 20° C | 99% | 1026.6 hPa | 0 mm | - | 85 W/m² | - |
| 1788091878 | 19.44° C | 99% | 1026.5 hPa | 0 mm | - | 59 W/m² | - |
* Rain latest hour (hover to see other rain measurements)
** Current wind speed in m/s (hover to see current wind gust speed)